Regional Weather Roundup
Issued by NWS Grand Forks, ND

Home | Current Version | Previous Version | Graphics & Text | Print | Product List | Glossary On
Versions: 1 2 3 4 5 6 7 8 9 10 11 12 13 14 15 16 17 18 19 20 21 22 23 24 25 26 27 28 29 30 31 32 33 34 35 36 37 38 39 40 41 42 43 44 45 46 47 48 49 50
000
ASUS43 KFGF 042031
RWRFGF
PRAIRIE TO PINES  WEATHER ROUNDUP
NATIONAL WEATHER SERVICE EASTERN NORTH DAKOTA/GRAND FORKS ND
200 PM CST WED MAR 04 2015

 **SATELLITE DATA USED TO AUGMENT SKY COVER AT AUTOMATED STATIONS**
 *****  WEATHER ACROSS EASTERN NORTH DAKOTA  *****

CITY           SKY/WX    TMP DP  RH WIND       PRES   REMARKS
GRAND FORKS    CLOUDY     2  -9  60 NW16G24   30.32  WCI -18
GRAND FRKS AFB MOSUNNY    2 -11  53 NW15      30.32R WCI -16
GRAND FRKS NWS   N/A      5 N/A N/A N7          N/A  WCI  -7
DEVILS LAKE    SUNNY     -2 -15  55 NW17      30.29F WCI -24
FARGO          CLOUDY     4  -8  57 NW16G24   30.33R WCI -15
WAHPETON ARPT  MOCLDY     3  -9  55 NW15G23   30.33S WCI -15
$$

 ***** WEATHER ACROSS CENTRAL AND WESTERN NORTH DAKOTA  *****

CITY           SKY/WX    TMP DP  RH WIND       PRES   REMARKS
BISMARCK       MOSUNNY    3 -13  47 NW16      30.35  WCI -16
MINOT          SUNNY     -1 -13  56 W14G23    30.32  WCI -20
JAMESTOWN      MIX PCPN   1 -10  60 NW18G28   30.29F WCI -20
MINOT AFB      SUNNY     -2 -12  63 NW17      30.32S WCI -23
GARRISON         N/A     -2 -12  62 NW15      30.32F WCI -22
WILLISTON      SUNNY      1 -14  49 NW6       30.34  WCI -10
DICKINSON      SUNNY      9 -10  42 NW13      30.22F WCI  -7
HETTINGER      PTSUNNY    9 -11  40 NW14G20   30.23  WCI  -7
$$

 *****  OTHER AIRPORT OBSERVATIONS IN OUR AREA  *****

CITY           SKY/WX    TMP DP  RH WIND       PRES   REMARKS
WALHALLA         N/A      0  -9  65 W13       30.32S WCI -18
GRAFTON AIRPOR NOT AVBL
VALLEY CITY AR FLURRIES   1  -9  60 NW18G28   30.29S WCI -19
CANDO          FAIR       0  -9  65 W15       30.30S WCI -20
CAVALIER APRT  LGT SNOW   0  -8  71 NW14G21   30.33R WCI -19
GWINNER        MOCLDY     3  -9  55 NW18G29   30.33S WCI -17
ROLLA          FAIR      -2 -11  65 NW17G25   30.26R WCI -24
 ***** THE ABOVE OBSERVATIONS ARE NON NWS ARE NOT QUALITY
       CONTROLLED AND MAY MIS-REPORT RAIN FOR SNOW...
$$

  *****  WEATHER ACROSS NORTHERN MINNESOTA  *****

CITY           SKY/WX    TMP DP  RH WIND       PRES   REMARKS
FLAG ISLAND    SUNNY      0 -13  55 NW13      30.18R WCI -18
WARROAD        SUNNY      1 -11  55 W10       30.21R WCI -14
ROSEAU         SUNNY      0  -9  65 W12G18    30.23R HAZE    WCI -18
HALLOCK        PTSUNNY    0  -9  65 NW17      30.30S WCI -21
THF RVR FALLS  CLOUDY    -2  -9  71 NW16      30.26R WCI -23
BAUDETTE       PTSUNNY   -1 -13  56 NW14      30.17  WCI -20
WASKISH        PTSUNNY    3  -9  55 W15       30.19R WCI -15
CROOKSTON      SUNNY      1  -9  60 NW15G23   30.32R WCI -18
$$
  *****  WEATHER ACROSS CENTRAL AND WEST MINNESOTA  *****

CITY           SKY/WX    TMP DP  RH WIND       PRES   REMARKS
FOSSTON        PTSUNNY    1 -11  55 W15G21    30.25R HAZE    WCI -18
BEMIDJI        CLOUDY    -1 -12  62 NW14      30.19S WCI -21
PARK RAPIDS    CLOUDY     1 -11  57 NW18      30.19R WCI -20
ELBOW LAKE     MOCLDY     1  -8  64 NW17G24   30.28S HAZE    WCI -19
WADENA         MOSUNNY    0 -13  55 W14G21    30.22S WCI -19
DETROIT LAKES  PTSUNNY    1  -8  66 NW15G22   30.25S HAZE    WCI -18
MOORHEAD       MOSUNNY    5  -8  56 NW15      30.32S WCI -13
FERGUS FALLS   MOSUNNY    1  -9  60 NW14G21   30.33S HAZE    WCI -17
MORRIS MN      SUNNY      3  -6  66 NW22      30.29R HAZE    WCI -19
STAPLES        MOSUNNY    0 -15  50 W15G24    30.21S WCI -20
$$
  *****  WEATHER ELSEWHERE ACROSS MINNESOTA  *****

CITY           SKY/WX    TMP DP  RH WIND       PRES   REMARKS
DULUTH         CLOUDY     1 -13  51 W17       30.10R WCI -19
INTRNTL FALLS  MOSUNNY    0 -14  51 W17       30.15  WCI -21
ELY            MOSUNNY    0 -17  46 NW13G18   30.07R WCI -18
CLOQUET        PTSUNNY    1 -15  46 W17G24    30.13R WCI -19
WHEATON        MOSUNNY    1  -8  66 W16       30.35S HAZE    WCI -18
BRAINERD       CLOUDY     3 -10  54 NW13      30.20  WCI -14
HIBBING        CLOUDY     1 -16  44 W12G22    30.11  WCI -16
ALEXANDRIA     PTSUNNY    1 -11  57 NW17      30.23S WCI -19
SAINT CLOUD    PTSUNNY    5  -8  55 NW16      30.23  WCI -14
MINNEAPOLIS    MOSUNNY   12  -5  46 NW16G26   30.22  WCI  -5
$$

  *****  WEATHER ACROSS SOUTH DAKOTA  *****

CITY           SKY/WX    TMP DP  RH WIND       PRES   REMARKS
SIOUX FALLS    PTSUNNY   10  -2  58 NW18G28   30.29S WCI  -8
BROOKINGS      NOT AVBL
WATERTOWN      PTSUNNY    2 -10  57 NW18      30.27  WCI -19
HURON          CLOUDY     7  -6  55 NW18G28   30.36  WCI -12
SISSETON         N/A      2  -6  69 NW20      30.32  WCI -19
ABERDEEN       PTSUNNY    3  -9  57 N21G28    30.36S WCI -18
MITCHELL       MOSUNNY   11  -3  53 NW16G31   30.35  WCI  -6
PIERRE         SUNNY     12  -4  48 NW21G28   30.32  WCI  -7
MOBRIDGE       MOSUNNY   11  -9  40 NW17G26   30.28  WCI  -6
RAPID CITY     SUNNY     16   3  56 N16       30.20  WCI   1
$$

  *****  SOME WEATHER IN NEARBY STATES *****

CITY           SKY/WX    TMP DP  RH WIND       PRES   REMARKS
GLASGOW MT     SUNNY     11  -8  42 SW7       30.25  WCI   0
GREAT FALLS MT SUNNY     32  10  40 SW16G22   30.07  WCI  21
CHEYENNE WY    MOSUNNY   17   4  56 W6        30.05  WCI   9
SCOTTSBLUFF NE SUNNY     25   4  40 NW12G18   30.18  WCI  14
OMAHA NE       MOSUNNY   30  -1  26 NW20G33   30.27  WCI  17
DES MOINES IA  PTSUNNY   28   7  41 W20       30.24  WCI  15
DAVENPORT IA   SUNNY     16   3  56 NW15      30.26  WCI   1
CHICAGO IL     PTSUNNY   21   6  52 N15       30.13F WCI   8
EAU CLAIRE WI  MOSUNNY   10  -7  46 W16       30.17F WCI  -7
LA CROSSE WI   MOSUNNY   17  -1  45 NW13      30.20  WCI   4
$$

  *****  SOME NATIONAL WEATHER *****

CITY           SKY/WX    TMP DP  RH WIND       PRES   REMARKS
LA GUARDIA NY  CLOUDY    45  38  76 SW9       29.82F
RALEIGH NC     PTSUNNY   71  57  61 SW24G35   29.90F
ATLANTA GA     PTSUNNY   76  58  53 S16       29.95
NEW ORLEANS LA PTSUNNY   80  66  62 S16G26    29.92
OKLAHOMA CITY  FLURRIES  27  18  69 N25G35    30.17F WCI  12
ALBUQUERQUE NM PTSUNNY   48  19  31 N12       29.95F
SALT LAKE CITY MOSUNNY   37  19  48 NW9       30.23
LOS ANGELES CA MOSUNNY   65  41  41 W7        30.09
BOISE ID       SUNNY     40  12  32 NW10      30.29
SEATTLE WA     SUNNY     49  23  36 CALM      30.30
$$

*** WEATHER ACROSS MANITOBA...SASKATCHEWAN AND ONTARIO ***
                ***ONTARIO***

CITY           SKY/WX    TMP DP  RH WIND       PRES   REMARKS
GERALDTON      PTSUNNY    1 -11  55 W9G17     29.90R DRFTSNOWWCI -14
THUNDER BAY    CLOUDY     3 -13  47 NW13G29   30.06R WCI -14
SIOUX LOOKOUT  MOSUNNY    0 -15  50 W10       30.06R WCI -17
TORONTO        CLOUDY    30  19  64 NW13G18   29.88S WCI  20
BIG TROUT LK   SUNNY     -2 -13  60 W17G24    29.99S WCI -24
PICKLE LAKE    SUNNY      1 -17  42 NW7       29.97R WCI -11
DRYDEN         SUNNY      0 -15  50 W9G22     30.07R WCI -16
KENORA         MOSUNNY    0 -15  50 NW10G18   30.13R WCI -17
$$
                *** MANITOBA***

CITY           SKY/WX    TMP DP  RH WIND       PRES   REMARKS
BRANDON        SUNNY     -4 -15  59 W16       30.32R WCI -25
DAUPHIN        SUNNY     -2 -11  65 W17       30.29F WCI -24
ISLAND LAKE    MOSUNNY   -2 -13  60 W12       30.10F WCI -20
PILOT MOUND      N/A     -6 -13  71 NW16        N/A  WCI -28
THE PAS        SUNNY      0 -17  46 W13       30.23F WCI -18
THOMPSON       SUNNY     -4 -18  50 W14G20    30.10F WCI -24
WINNIPEG       MOSUNNY   -2 -11  65 NW18      30.31R WCI -24
LYNN LAKE      SUNNY     -6 -18  54 W12G20    30.06F WCI -24
CHURCHILL      CRYSTALS -15 -24  64 NW16      30.00F WCI -39
GILLAM         MOSUNNY   -9 -20  59 W12       30.04F WCI -29
$$
                ***SASKATCHEWAN***

CITY           SKY/WX    TMP DP  RH WIND       PRES   REMARKS
ESTEVAN        MOSUNNY   -8 -18  59 NW12      30.32F WCI -27
KINDERSLEY     MOSUNNY    3  -6  66 S14       30.16F WCI -15
LLOYDMINSTER   PTSUNNY    1  -9  60 S10       30.09F WCI -14
PRINCE ALBERT  PTSUNNY    0 -17  46 W8        30.25F WCI -15
REGINA         SUNNY     -8 -17  65 W10       30.31F WCI -26
YORKTON        SUNNY     -6 -17  59 W10       30.28F WCI -23
N. BATTLEFORD  SUNNY      1 -11  55 SW8       30.22F WCI -12
LA RONGE       MOSUNNY    1 -17  42 SW10      30.18F WCI -14
SASKATOON      MOSUNNY   -4 -15  59 SW10      30.28F WCI -21
SWIFT CURRENT  SUNNY      3  -8  60 S9        30.16F WCI -11
$$
NOTE: THESE ARE AUTOMATED STATIONS WITH LIMITED QUALITY CONTROL
      "FAIR" INDICATES FEW OR NO CLOUDS BELOW 12,000 FEET WITH NO
      SIGNIFICANT WEATHER AND/OR OBSTRUCTIONS TO VISIBILITY.
      SKY/WX - SKY CONDITION AND SIGNIFICANT WEATHER.
      TMP - AIR TEMPERATURE.    DP   - DEWPOINT TEMPERATURE.
      RH  - RELATIVE HUMIDITY.  PRES - PRESSURE.
      HX  - HEAT INDEX.         WCI  - WIND CHILL INDEX.
$


USA.gov is the U.S. government's official web portal to all federal, state and local government web resources and services.